468  
ASUS44 KEWX 250510  
RWREWX  
SOUTH TEXAS REGIONAL WEATHER ROUNDUP  
NATIONAL WEATHER SERVICE AUSTIN/SAN ANTONIO TX  
1100 PM CST SAT FEB 24 2018  
 
NOTE: "FAIR" INDICATED FEW OR NO CLOUDS BELOW 12,000 FEET WITH NO  
SIGNIFICANT WEATHER AND/OR S TO VISIBILITY
.  
 
* - THESE STATIONS ARE NOT NWS OR FAA STATIONS...AND ARE NOT SUBJECT  
TO NWS AND FAA QUALITY CONTROL.
 
 
TXZ171-172-183>190-250600-  
TEXAS HILL COUNTRY AND EDWARDS PLATEAU  
 
CITY SKY/WX TMP DP RH WIND PRES REMARKS
 
JUNCTION CLEAR 50 46 86 W5 30.00R WCI 48  
*LLANO MOCLDY 57 50 77 CALM 30.03R  
BURNET MOCLDY 60 52 74 E3 30.01S  
*HORSESHOE BAY N/A 59 55 84 CALM 30.00R  
*KERRVILLE CLOUDY 59 46 62 NE6 30.00R  
*FREDERICKSBRG MOCLDY 57 48 71 CALM 30.00S  
*ROCKSPRINGS PTCLDY 57 43 58 NE6 30.04R  
*BOERNE STAGE CLOUDY 61 59 94 N7 29.99R  
*CASTROVILLE FOG 64 64 100 CALM 29.97R VSB 1  
HONDO CLOUDY 67 64 90 N8 29.94R  
*UVALDE CLOUDY 64 62 94 N7 29.95R  
DEL RIO PTCLDY 60 59 96 N6 29.95R  
LAUGHLIN AFB PTCLDY 58 57 97 N7 29.95S  
CARRIZO SPRGS CLOUDY 64 64 100 N3 29.92R FOG  
*EAGLE PASS CLEAR 63 59 88 N6 29.94R FOG  
*FAITH RANCH PTCLDY 66 66 100 N8 29.90F  

 
 
TXZ173-191>194-202-209-217>225-228-250600-  
CENTRAL AND SOUTH CENTRAL TEXAS  
 
CITY SKY/WX TMP DP RH WIND PRES REMARKS
 
GEORGETOWN CLOUDY 60 52 74 NE5 30.02R  
AUSTIN/BERGSTM CLOUDY 62 52 69 N10 29.97R  
AUSTIN/MABRY CLOUDY 63 49 60 VRB6 29.99R  
*AUSTIN/EXEC NOT AVBL  
*LAGO VISTA CLOUDY 61 54 79 NE9 30.00R  
SAN MARCOS CLOUDY 62 53 72 NE16 29.98R  
NEW BRAUNFELS CLOUDY 67 65 93 NE14 29.96R FOG  
RANDOLPH AFB CLOUDY 65 64 98 CALM 29.96R  
PT SAN ANTONIO CLOUDY 66 66 98 N8 29.94R  
SAN ANTONIO CLOUDY 64 63 96 SE3 29.96R  
STINSON FIELD CLOUDY 68 66 93 N7 29.92R  
*LA GRANGE CLOUDY 69 69 98 N7 29.95R  
*GIDDINGS CLOUDY 63 55 76 N6 29.98R  
*GONZALES CLOUDY 70 70 100 SE8 29.94R  

 
 
TXZ163>164-176>182-195>201-210>213-226-227-235-250600-  
SOUTHEAST TEXAS  
 
CITY SKY/WX TMP DP RH WIND PRES REMARKS
 
COLLEGE STN CLOUDY 63 49 60 NE10 29.98R  
*BRYAN CLOUDY 60 49 67 NE7 30.00R  
*CALDWELL CLOUDY 62 51 67 N8 29.99R  
*CROCKETT CLOUDY 59 50 72 N7 30.02R  
*BRENHAM CLOUDY 67 64 91 N9G17 29.97R  
HUNTSVILLE LGT RAIN 58 57 97 NW3 29.99R  
CONROE CLOUDY 71 71 100 SW3 29.96R  
HOUSTON BUSH TSTM 73 71 93 S3 29.95S  
HOUSTON HOBBY CLOUDY 73 72 96 S7 29.95R  
*HOUSTON SW AP CLOUDY 72 70 94 CALM 29.96S  
PEARLAND CLOUDY 73 72 96 S9 29.96S  
HOUSTON HOOKS CLOUDY 73 70 90 SW3 29.95S  
ELLINGTON FLD CLOUDY 73 72 94 S8 29.98R  
SUGAR LAND CLOUDY 75 70 84 S6 29.94F  
*HOUSTON EXEC CLOUDY 72 70 94 CALM 29.96S  
*CLEVELAND MUN CLOUDY 72 68 89 SW3 29.97R FOG  
*WHARTON CLOUDY 72 69 90 S3 29.96R  
*COLUMBUS CLOUDY 70 69 95 CALM 29.95S  
*EAGLE LAKE CLOUDY 71 71 99 CALM 29.94S  

 
 
TXZ214>216-236>238-250600-  
THE UPPER TEXAS COAST  
 
CITY SKY/WX TMP DP RH WIND PRES REMARKS
 
*ORANGE CLOUDY 73 73 98 S8 29.99R FOG  
PORT ARTHUR CLOUDY 73 70 90 S12 29.97R  
GALVESTON FAIR 73 72 96 S12 29.96R  
ANGLETON CLOUDY 74 70 87 S13 29.94R  
*BAY CITY CLOUDY 73 72 97 S7 29.94S FOG  
PALACIOS CLOUDY 72 72 100 S10 29.93R  

 
 
TXZ229>234-239>247-250600-  
TEXAS COASTAL BEND AND RIO GRANDE PLAINS  
 
CITY SKY/WX TMP DP RH WIND PRES REMARKS
 
VICTORIA CLOUDY 72 68 87 CALM 29.94R  
*BEEVILLE CLOUDY 69 68 95 E6 29.92S  
ROCKPORT CLOUDY 70 69 97 S8 29.91R FOG  
*PORT ARANSAS NOT AVBL  
*PORT LAVACA CLOUDY 73 69 89 S9 29.94R  
*INGLESIDE CLOUDY 72 69 92 MISG 29.91S  
CORPUS CHRISTI CLOUDY 71 71 100 S18 29.89F  
CORPUS NAS CLOUDY 71 70 96 S15 29.91R  
*ROBSTOWN CLOUDY 71 69 93 S8 29.91R  
ALICE CLOUDY 71 66 84 SE5 29.90R  
KINGSVILLE NAS CLOUDY 70 68 93 S7 29.90S  
COTULLA CLOUDY 70 67 90 NE9 29.91S  
LAREDO CLOUDY 71 67 87 NE12 29.88R  

 
 
TXZ248>255-250600-  
DEEP SOUTH TEXAS  
 
CITY SKY/WX TMP DP RH WIND PRES REMARKS
 
BROWNSVILLE FAIR 74 72 93 S15 29.90S  
PORT ISABEL FAIR 74 69 85 S15 29.88S  
*SOUTH PADRE NOT AVBL  
HARLINGEN CLOUDY 74 71 91 S15 29.88R  
*HEBBRONVILLE MOCLDY 70 66 88 S6 29.89F  
MCALLEN MOCLDY 76 71 85 SE15 29.89R  
*WESLACO CLOUDY 74 69 86 S13G18 29.88S  
FALFURRIAS CLOUDY 74 66 75 SE5 29.90S  
EDINBURG MOCLDY 77 69 77 S9 29.90R  
*ZAPATA FAIR 74 65 72 E3 29.87F  

 
 
TXZ213>215-236>238-242>244-246-247-251-254-255-250600-  
CMAN STATIONS  
 
STATION/POSITION TIME TEMP WIND PRES WAVE
 
AIR SEA DIR/SP/G HT/PER  
(UTC) (F) (DEG/KT/KT) (MB) (FT/S)  
SABINE PASS 0448 71 74 170/ 11/ 14 1016.5  
SEA RIM ST PARK 0500 70 180/ 10/ 12 1015.4  
NORTH JETTY/GLS 0448 68 160/ 12/ 14 1014.1  
EAGLE POINT 0448 74 72 200/ 15/ 19 1014.4  
MORGANS POINT 0448 72 68 190/ 3/ 5 1014.6  
PORT O'CONNOR 0448 69 65 150/ 14/ 16 1012.2  
MALAQUITE BEACH 0448 90 66 160/ 10/ 11 1012.6  
BAFFIN BAY 0448 69 70 150/ 14/ 19 1012.8  
PORT ISABEL 0442 72 66 170/ 10/ 14 1012.6  

 
 
 
CLICK HERE TO GO TO PREVIOUS BULLETINS.

The Nexlab TX Page Main Text Page